Regional Weather Roundup
Issued by NWS Cleveland, OH

Home | Current Version | Previous Version | Graphics & Text | Print | Product List | Glossary On
Versions: 1 2 3 4 5 6 7 8 9 10 11 12 13 14 15 16 17 18 19 20 21 22 23 24 25 26 27 28 29 30 31 32 33 34 35 36 37 38 39 40 41 42 43 44 45 46 47 48 49 50
000
ASUS41 KCLE 271910
RWRCLE
OHIO REGIONAL WEATHER ROUNDUP
NATIONAL WEATHER SERVICE CLEVELAND, OH
200 PM EST TUE JAN 27 2015

NOTE: "FAIR" INDICATES FEW OR NO CLOUDS BELOW 12,000 FEET WITH NO
SIGNIFICANT WEATHER AND/OR OBSTRUCTIONS TO VISIBILITY.

OHZ001>008-015>018-024>027-034-035-043-044-272000-
   NORTHWEST OHIO

CITY           SKY/WX    TMP DP  RH WIND       PRES   REMARKS
DEFIANCE       SUNNY     25  12  58 NW7       30.12S WCI  17
FINDLAY        SUNNY     23  12  62 N7        30.08F WCI  15
TOLEDO EXPRESS SUNNY     24  11  57 NW10      30.10F WCI  14
TOLEDO EXEC    SUNNY     25  11  55 CALM      30.11F
LIMA           SUNNY     21  11  65 N9        30.08F WCI  11
$$

OHZ009>014-019>023-028>033-038-089-272000-
   NORTHEAST OHIO

CITY           SKY/WX    TMP DP  RH WIND       PRES   REMARKS
CLE-HOPKINS    PTSUNNY   20  11  68 N10       30.08S WCI   9
CLE-LAKEFRONT  SUNNY     20  11  68 NW9       30.07S WCI   9
CUY CO. ARPT   PTSUNNY   21  14  73 N13       30.05S WCI   9
LORAIN-ELYRIA  SUNNY     19   9  65 N13       30.07S WCI   6
ASHTABULA      FLURRIES  19  12  74 N12       30.03R WCI   7
AKRON-CANTON   FLURRIES  21  12  68 N15       29.99S WCI   8
WOOSTER        FLURRIES  20  12  71 N10       30.02S WCI   9
MANSFIELD      CLOUDY    19  12  74 NW12      30.02S WCI   7
YOUNGSTOWN     LGT SNOW  20  13  74 N15       29.97S WCI   6
$$

OHZ042-051>053-060>062-070>072-077>081-272000-
  SOUTHWEST OHIO

CITY           SKY/WX    TMP DP  RH WIND       PRES   REMARKS
CINC-COVINGTON SUNNY     30  13  49 N10       30.06F WCI  21
CINC-LUNKEN    SUNNY     29  13  51 N10       30.10F WCI  20
HAMILTON       SUNNY     28  16  60 VRB6      30.11S WCI  22
DAYTON         MOSUNNY   23  13  65 N10       30.08F WCI  12
WRIGHT-PAT AFB MOSUNNY   23  12  64 N7        30.08F WCI  14
DAYTON GENERAL SUNNY     24  12  60 N9        30.06F WCI  14
WILMINGTON     CLOUDY    22  13  68 VRB6      30.06S WCI  14
$$

OHZ036-037-039>041-045>050-054>059-063>069-073>076-082>088-272000-
  CENTRAL AND SOUTHEAST OHIO

CITY           SKY/WX    TMP DP  RH WIND       PRES   REMARKS
COLUMBUS       MOSUNNY   21  12  68 N9        30.05F WCI  11
OSU AIRPORT    MOSUNNY   20  12  71 N10       30.05F WCI   9
BOLTON FIELD   MOSUNNY   19  12  73 NW12      30.06F WCI   7
RICKENBACK AFB PTSUNNY   22  14  69 NW12      30.06S WCI  11
NEWARK         CLOUDY    23  13  65 N8        30.03S WCI  14
MARION         SUNNY     20  12  71 N10       30.06F WCI   9
LANCASTER      CLOUDY    22  13  68 N8        30.05S WCI  12
ZANESVILLE     CLOUDY    21  13  71 N9        30.02S WCI  11
NEW PHILLY     CLOUDY    23  13  65 NW10      30.01S WCI  12
$$



USA.gov is the U.S. government's official web portal to all federal, state and local government web resources and services.